Location: Plainartige
(45.6866°N, 1.7993°E)
Time: 10:06:16
(UTC+00:00)

Tiros 1 - Pass Details

Date: 02 June 2022
Orbit: 629 x 663 km, 48.4° (Epoch: 04 July)

Event Time Altitude Azimuth Distance (km) Brightness Sun altitude
Rises 00:25:13 0° 270° (W) 2,913 10.4 -21.7°
Reaches altitude 10° 00:27:33 10° 274° (W) 2,007 9.6 -21.6°
Maximum altitude 00:32:07 62° 355° (N) 711 7.5 -21.5°
Drops below altitude 10° 00:36:44 10° 77° (ENE) 2,021 10.0 -21.4°
Sets 00:39:06 0° 81° (E) 2,935 10.8 -21.3°
